Location: ?????????
(53.2086°N, 54.0693°E)
Time: 18:05:54
(UTC+00:00)

Cosmos 292 Rocket - Pass Details

Date: 08 December 2019
Orbit: 673 x 694 km, 74.0° (Epoch: 19 January)

Event Time Altitude Azimuth Distance (km) Brightness Sun altitude
Rises 14:42:43 0° 331° (NNW) 3,085 7.4 -22.0°
Reaches altitude 10° 14:45:04 10° 327° (NNW) 2,164 6.6 -22.4°
Maximum altitude 14:49:50 56° 251° (WSW) 829 4.4 -23.1°
Drops below altitude 10° 14:54:34 10° 173° (S) 2,148 6.3 -23.8°
Sets 14:56:54 0° 170° (S) 3,059 7.1 -24.1°
